Location: Squirrel Cove
(50.1074°N, 124.9139°W)
Time: 10:19:25
(UTC-07:00)

BEESAT 3 - Visible Passes

Search period start: 17 May 2022 00:00
Search period end: 27 May 2022 00:00
Orbit: 459 x 506 km, 64.9° (Epoch: 16 May)

Date Brightness Start Highest point End Pass type
(mag) Time Alt. Az. Time Alt. Az. Time Alt. Az.
17 May ? 01:38:37 10° NNW 01:39:34 11° NNW 01:40:32 10° N visible
17 May ? 03:17:45 10° N 03:18:14 10° N 03:18:43 10° NNE visible
17 May ? 21:54:35 10° SSW 21:58:08 39° ESE 22:01:44 10° NE visible
17 May ? 23:31:44 10° WSW 23:35:10 31° NW 23:38:38 10° NNE visible
18 May ? 01:11:57 10° NW 01:13:15 11° NNW 01:14:34 10° N visible
18 May ? 04:27:13 10° NNW 04:30:15 21° NNE 04:33:15 10° E visible
18 May ? 23:05:23 10° WSW 23:08:55 35° NW 23:12:29 10° NNE visible
19 May ? 00:45:19 10° NW 00:46:55 12° NNW 00:48:30 10° N visible
19 May ? 04:01:06 10° NNW 04:03:57 19° NNE 04:06:46 10° ENE visible
19 May ? 22:39:01 10° WSW 22:42:38 41° NW 22:46:18 10° NNE visible
20 May ? 00:18:41 10° NW 00:20:32 13° NNW 00:22:24 10° N visible
20 May ? 03:34:58 10° NNW 03:37:37 17° NNE 03:40:14 10° ENE visible
20 May ? 22:12:38 10° WSW 22:16:19 49° NW 22:20:05 10° NNE visible
20 May ? 23:52:02 10° NW 23:54:08 14° NNW 23:56:15 10° N visible
21 May ? 03:08:47 10° NNW 03:11:12 16° NNE 03:13:38 10° ENE visible
21 May ? 21:46:16 10° SW 21:50:00 59° NW 21:53:49 10° NE visible
21 May ? 23:25:22 10° WNW 23:27:42 15° NNW 23:30:04 10° NNE visible
22 May ? 02:42:35 10° NNW 02:44:46 14° NNE 02:46:58 10° ENE visible
22 May ? 04:18:47 10° NNW 04:22:34 51° NE 04:26:19 10° ESE visible
22 May ? 22:58:42 10° WNW 23:01:15 17° NNW 23:03:49 10° NNE visible
23 May ? 02:16:22 10° N 02:18:18 13° NNE 02:20:15 10° NE visible
23 May ? 03:52:28 10° NNW 03:56:11 43° NE 03:59:51 10° ESE visible
23 May ? 22:32:01 10° WNW 22:34:46 19° NNW 22:37:33 10° NNE visible
24 May ? 01:50:08 10° N 01:51:48 12° NNE 01:53:27 10° NE visible
24 May ? 03:26:09 10° NNW 03:29:46 36° NE 03:33:21 10° ESE visible
24 May ? 22:05:20 10° W 22:08:15 21° NNW 22:11:14 10° NNE visible
25 May ? 01:23:52 10° N 01:25:14 11° NNE 01:26:35 10° NE visible
25 May ? 02:59:47 10° NNW 03:03:18 31° NE 03:06:45 10° ESE visible
25 May ? 04:36:41 10° NW 04:40:18 39° WSW 04:43:52 10° S visible
25 May ? 23:19:48 10° NNW 23:20:00 10° N 23:20:12 10° N visible
26 May ? 00:57:37 10° N 00:58:38 11° NNE 00:59:38 10° NNE visible
26 May ? 02:33:25 10° NNW 02:36:47 27° NE 02:40:07 10° E visible
26 May ? 04:10:10 10° NW 04:13:53 48° WSW 04:17:34 10° SSE visible
26 May ? 22:52:31 10° NNW 22:53:21 11° NNW 22:54:11 10° N visible
